| time (UTC) | temp F | wind direction | speed MPH | gust MPH | rain 1hr in | rain 24hr in | rain mn in | humidity % | barometer mb |
| 20260507145423 | 55 | 245 | 2.0 | 2.0 | 0.00 | 0.00 | 0.00 | 47 | 1008.6 |
| 20260507144921 | 55 | 68 | 2.0 | 4.0 | 0.00 | 0.00 | 0.00 | 44 | 1008.7 |
| 20260507144418 | 54 | 53 | 0.0 | 3.0 | 0.00 | 0.00 | 0.00 | 50 | 1008.5 |
| 20260507143915 | 54 | 36 | 2.0 | 3.0 | 0.00 | 0.00 | 0.00 | 48 | 1008.6 |
| 20260507143412 | 55 | 61 | 2.0 | 3.0 | 0.00 | 0.00 | 0.00 | 46 | 1008.4 |
| 20260507143057 | 53 | 59 | 1.0 | 3.0 | 0.00 | 0.11 | 0.00 | 51 | 1007.6 |
| 20260507142908 | 55 | 283 | 2.0 | 3.0 | 0.00 | 0.00 | 0.00 | 52 | 1008.6 |
| 20260507142404 | 53 | 147 | 3.0 | 3.0 | 0.00 | 0.00 | 0.00 | 46 | 1008.6 |
| 20260507141902 | 53 | 129 | 0.0 | 2.0 | 0.00 | 0.00 | 0.00 | 51 | 1008.5 |
| 20260507141556 | 53 | 215 | 1.0 | 2.0 | 0.00 | 0.11 | 0.00 | 49 | 1007.5 |
| 20260507141358 | 53 | 79 | 3.0 | 3.0 | 0.00 | 0.00 | 0.00 | 43 | 1008.5 |
| 20260507140854 | 54 | 131 | 1.0 | 4.0 | 0.00 | 0.00 | 0.00 | 42 | 1008.5 |
| 20260507140351 | 53 | 46 | 2.0 | 3.0 | 0.00 | 0.00 | 0.00 | 48 | 1008.6 |
| 20260507140056 | 52 | 114 | 1.0 | 3.0 | 0.00 | 0.11 | 0.00 | 51 | 1007.6 |
| 20260507135849 | 54 | 296 | 0.0 | 2.0 | 0.00 | 0.00 | 0.00 | 49 | 1008.5 |
| 20260507135345 | 53 | 107 | 2.0 | 4.0 | 0.00 | 0.00 | 0.00 | 48 | 1008.8 |
| 20260507134843 | 54 | 62 | 2.0 | 4.0 | 0.00 | 0.00 | 0.00 | 48 | 1008.9 |
| 20260507134339 | 53 | 88 | 3.0 | 3.0 | 0.00 | 0.00 | 0.00 | 50 | 1008.9 |
| 20260507133835 | 51 | 95 | 3.0 | 5.0 | 0.00 | 0.00 | 0.00 | 49 | 1009.1 |
| 20260507133331 | 51 | 65 | 1.0 | 2.0 | 0.00 | 0.00 | 0.00 | 57 | 1008.9 |
| 20260507133057 | 49 | 231 | 1.0 | 3.0 | 0.00 | 0.15 | 0.00 | 61 | 1008.0 |
| 20260507132830 | 50 | 47 | 1.0 | 3.0 | 0.00 | 0.00 | 0.00 | 60 | 1008.9 |
| 20260507132325 | 50 | 213 | 1.0 | 2.0 | 0.00 | 0.00 | 0.00 | 57 | 1008.9 |
| 20260507131823 | 49 | 126 | 0.0 | 3.0 | 0.00 | 0.00 | 0.00 | 57 | 1008.9 |
| 20260507131555 | 48 | 151 | 1.0 | 3.0 | 0.00 | 0.18 | 0.00 | 62 | 1008.1 |
| 20260507131319 | 48 | 168 | 1.0 | 3.0 | 0.00 | 0.00 | 0.00 | 61 | 1008.8 |
| 20260507130816 | 50 | 255 | 1.0 | 3.0 | 0.00 | 0.00 | 0.00 | 58 | 1009.0 |
| 20260507130314 | 48 | 69 | 1.0 | 3.0 | 0.00 | 0.00 | 0.00 | 61 | 1009.1 |
| 20260507130056 | 48 | 219 | 1.0 | 3.0 | 0.00 | 0.20 | 0.00 | 64 | 1008.1 |
| 20260507125813 | 50 | 202 | 2.0 | 2.0 | 0.00 | 0.00 | 0.00 | 60 | 1008.9 |
| 20260507125310 | 50 | 63 | 3.0 | 3.0 | 0.00 | 0.00 | 0.00 | 59 | 1009.1 |
| 20260507124807 | 48 | 89 | 4.0 | 4.0 | 0.00 | 0.00 | 0.00 | 61 | 1009.1 |
| 20260507124556 | 47 | 216 | 1.0 | 3.0 | 0.00 | 0.21 | 0.00 | 64 | 1008.2 |
| 20260507124303 | 49 | 44 | 1.0 | 3.0 | 0.00 | 0.00 | 0.00 | 56 | 1009.1 |
| 20260507123802 | 48 | 88 | 3.0 | 3.0 | 0.00 | 0.00 | 0.00 | 60 | 1009.2 |
| 20260507123258 | 48 | 47 | 0.0 | 2.0 | 0.00 | 0.00 | 0.00 | 60 | 1009.1 |
| 20260507123057 | 46 | 261 | 0.0 | 2.0 | 0.00 | 0.22 | 0.00 | 66 | 1008.1 |
| 20260507122754 | 48 | 116 | 1.0 | 3.0 | 0.00 | 0.00 | 0.00 | 62 | 1009.0 |
| 20260507122250 | 47 | 70 | 2.0 | 2.0 | 0.00 | 0.00 | 0.00 | 60 | 1008.8 |
| 20260507121746 | 48 | 77 | 0.0 | 2.0 | 0.00 | 0.00 | 0.00 | 63 | 1008.9 |
| 20260507121556 | 45 | 150 | 0.0 | 3.0 | 0.00 | 0.23 | 0.00 | 70 | 1008.1 |
| 20260507121242 | 48 | 53 | 2.0 | 3.0 | 0.00 | 0.00 | 0.00 | 63 | 1008.7 |
| 20260507120738 | 47 | 78 | 2.0 | 4.0 | 0.00 | 0.00 | 0.00 | 63 | 1008.8 |
| 20260507120235 | 47 | 63 | 3.0 | 3.0 | 0.00 | 0.00 | 0.00 | 64 | 1008.7 |
| 20260507115731 | 47 | 63 | 2.0 | 2.0 | 0.00 | 0.00 | 0.00 | 65 | 1009.1 |
| 20260507115227 | 46 | 86 | 3.0 | 3.0 | 0.00 | 0.00 | 0.00 | 66 | 1008.8 |
| 20260507114723 | 45 | 86 | 1.0 | 3.0 | 0.00 | 0.00 | 0.00 | 70 | 1008.9 |
| 20260507114221 | 46 | 132 | 2.0 | 3.0 | 0.00 | 0.00 | 0.00 | 69 | 1008.9 |
| 20260507113718 | 46 | 58 | 2.0 | 3.0 | 0.00 | 0.00 | 0.00 | 69 | 1009.0 |
| 20260507113215 | 46 | 46 | 2.0 | 4.0 | 0.00 | 0.00 | 0.00 | 70 | 1008.8 |
| 20260507112712 | 45 | 50 | 1.0 | 3.0 | 0.00 | 0.00 | 0.00 | 73 | 1008.6 |
| 20260507112209 | 43 | 75 | 2.0 | 4.0 | 0.00 | 0.00 | 0.00 | 75 | 1008.9 |
| 20260507111706 | 43 | 48 | 2.0 | 2.0 | 0.00 | 0.00 | 0.00 | 76 | 1008.7 |
| 20260507111203 | 42 | 57 | 3.0 | 3.0 | 0.00 | 0.00 | 0.00 | 83 | 1008.6 |
| 20260507110659 | 39 | 62 | 2.0 | 3.0 | 0.00 | 0.00 | 0.00 | 88 | 1008.4 |
| 20260507110156 | 38 | 61 | 2.0 | 3.0 | 0.00 | 0.00 | 0.00 | 89 | 1008.2 |
| 20260507110055 | 38 | 55 | 0.0 | 2.0 | 0.00 | 0.25 | 0.00 | 88 | 1007.7 |
| 20260507105653 | 38 | 50 | 3.0 | 3.0 | 0.00 | 0.00 | 0.00 | 90 | 1008.3 |
| 20260507105149 | 37 | 66 | 2.0 | 3.0 | 0.00 | 0.00 | 0.00 | 90 | 1008.5 |
| 20260507104646 | 37 | 48 | 2.0 | 3.0 | 0.00 | 0.00 | 0.00 | 90 | 1008.5 |
| 20260507104556 | 38 | 44 | 0.0 | 0.0 | 0.00 | 0.26 | 0.00 | 86 | 1007.8 |
| 20260507104142 | 37 | 62 | 2.0 | 3.0 | 0.00 | 0.00 | 0.00 | 89 | 1008.5 |
| 20260507103638 | 37 | 60 | 2.0 | 3.0 | 0.00 | 0.00 | 0.00 | 89 | 1008.4 |
| 20260507103136 | 37 | 62 | 2.0 | 2.0 | 0.00 | 0.00 | 0.00 | 89 | 1008.4 |
| 20260507103056 | 38 | 44 | 0.0 | 0.0 | 0.00 | 0.26 | 0.00 | 85 | 1007.7 |
| 20260507102632 | 37 | 54 | 2.0 | 3.0 | 0.00 | 0.00 | 0.00 | 89 | 1008.2 |
| 20260507102128 | 37 | 58 | 2.0 | 3.0 | 0.00 | 0.00 | 0.00 | 88 | 1008.3 |
| 20260507101624 | 37 | 69 | 2.0 | 3.0 | 0.00 | 0.00 | 0.00 | 87 | 1008.2 |
| 20260507101555 | 39 | 44 | 0.0 | 0.0 | 0.00 | 0.26 | 0.00 | 84 | 1007.6 |
| 20260507101120 | 37 | 46 | 1.0 | 3.0 | 0.00 | 0.00 | 0.00 | 86 | 1008.0 |
| 20260507100618 | 38 | 60 | 2.0 | 2.0 | 0.00 | 0.00 | 0.00 | 85 | 1008.2 |
| 20260507100116 | 38 | 50 | 2.0 | 3.0 | 0.00 | 0.00 | 0.00 | 84 | 1008.1 |
| 20260507100056 | 39 | 44 | 0.0 | 1.0 | 0.00 | 0.26 | 0.00 | 82 | 1007.4 |
| 20260507095613 | 38 | 53 | 2.0 | 3.0 | 0.00 | 0.00 | 0.00 | 83 | 1007.9 |
| 20260507095109 | 39 | 64 | 2.0 | 3.0 | 0.00 | 0.00 | 0.00 | 83 | 1008.1 |
| 20260507094606 | 39 | 70 | 2.0 | 3.0 | 0.00 | 0.00 | 0.00 | 82 | 1007.8 |
| 20260507094557 | 40 | 44 | 0.0 | 0.0 | 0.00 | 0.26 | 0.00 | 79 | 1007.4 |
| 20260507094103 | 39 | 48 | 2.0 | 2.0 | 0.00 | 0.00 | 0.00 | 80 | 1008.1 |
| 20260507093600 | 40 | 62 | 2.0 | 2.0 | 0.00 | 0.00 | 0.00 | 79 | 1008.1 |
| 20260507093059 | 40 | 76 | 2.0 | 3.0 | 0.00 | 0.00 | 0.00 | 78 | 1008.2 |
| 20260507093056 | 41 | 44 | 0.0 | 2.0 | 0.00 | 0.26 | 0.00 | 77 | 1007.2 |
| 20260507092555 | 40 | 67 | 2.0 | 3.0 | 0.00 | 0.00 | 0.00 | 78 | 1007.8 |
| 20260507092052 | 40 | 41 | 1.0 | 3.0 | 0.00 | 0.00 | 0.00 | 78 | 1007.8 |
| 20260507091556 | 41 | 121 | 0.0 | 2.0 | 0.00 | 0.26 | 0.00 | 78 | 1007.2 |
| 20260507091549 | 41 | 46 | 0.0 | 4.0 | 0.00 | 0.00 | 0.00 | 79 | 1008.0 |
| 20260507091045 | 41 | 75 | 1.0 | 4.0 | 0.00 | 0.00 | 0.00 | 81 | 1007.7 |
| 20260507090541 | 41 | 57 | 2.0 | 3.0 | 0.00 | 0.00 | 0.00 | 83 | 1007.8 |
| 20260507090057 | 42 | 81 | 0.0 | 1.0 | 0.00 | 0.26 | 0.00 | 81 | 1007.1 |
| 20260507090038 | 41 | 54 | 2.0 | 3.0 | 0.00 | 0.00 | 0.00 | 83 | 1008.0 |
| 20260507085535 | 41 | 64 | 3.0 | 3.0 | 0.00 | 0.00 | 0.00 | 83 | 1007.9 |
| 20260507085031 | 41 | 68 | 2.0 | 3.0 | 0.00 | 0.00 | 0.00 | 83 | 1007.8 |
| 20260507084556 | 43 | 81 | 0.0 | 0.0 | 0.00 | 0.26 | 0.00 | 82 | 1007.0 |
| 20260507084528 | 42 | 58 | 2.0 | 3.0 | 0.00 | 0.00 | 0.00 | 82 | 1007.6 |
| 20260507084025 | 42 | 61 | 2.0 | 3.0 | 0.00 | 0.00 | 0.00 | 82 | 1007.9 |
| 20260507083521 | 42 | 53 | 2.0 | 3.0 | 0.00 | 0.00 | 0.00 | 81 | 1007.7 |
| 20260507083056 | 43 | 81 | 0.0 | 1.0 | 0.00 | 0.26 | 0.00 | 81 | 1006.9 |
| 20260507083019 | 43 | 48 | 1.0 | 3.0 | 0.00 | 0.00 | 0.00 | 81 | 1007.7 |
| 20260507082514 | 43 | 42 | 0.0 | 2.0 | 0.00 | 0.00 | 0.00 | 81 | 1007.7 |
| 20260507082011 | 43 | 52 | 2.0 | 3.0 | 0.00 | 0.00 | 0.00 | 81 | 1007.8 |
| 20260507081556 | 44 | 355 | 1.0 | 3.0 | 0.00 | 0.26 | 0.00 | 81 | 1007.1 |
| 20260507081507 | 43 | 56 | 2.0 | 4.0 | 0.00 | 0.00 | 0.00 | 81 | 1007.9 |
| 20260507081004 | 44 | 37 | 3.0 | 3.0 | 0.00 | 0.00 | 0.00 | 83 | 1007.8 |
| 20260507080500 | 44 | 88 | 2.0 | 3.0 | 0.00 | 0.00 | 0.00 | 86 | 1008.1 |
| 20260507080056 | 44 | 180 | 0.0 | 1.0 | 0.00 | 0.26 | 0.00 | 88 | 1007.1 |
| 20260507075955 | 44 | 64 | 2.0 | 2.0 | 0.00 | 0.00 | 0.00 | 87 | 1008.0 |
| 20260507075452 | 44 | 30 | 0.0 | 2.0 | 0.00 | 0.00 | 0.00 | 88 | 1007.9 |
| 20260507074948 | 44 | 50 | 2.0 | 2.0 | 0.00 | 0.00 | 0.00 | 88 | 1007.9 |
| 20260507074555 | 44 | 180 | 0.0 | 0.0 | 0.00 | 0.26 | 0.00 | 88 | 1006.9 |
| 20260507074446 | 44 | 31 | 1.0 | 2.0 | 0.00 | 0.00 | 0.00 | 88 | 1007.8 |
| 20260507073944 | 44 | 324 | 0.0 | 3.0 | 0.00 | 0.00 | 0.00 | 88 | 1007.7 |
| 20260507073439 | 43 | 47 | 0.0 | 2.0 | 0.00 | 0.00 | 0.00 | 88 | 1007.7 |
| 20260507073056 | 43 | 180 | 0.0 | 1.0 | 0.00 | 0.26 | 0.00 | 89 | 1006.9 |
| 20260507072936 | 43 | 55 | 0.0 | 2.0 | 0.00 | 0.00 | 0.00 | 89 | 1007.9 |
| 20260507072434 | 43 | 62 | 1.0 | 2.0 | 0.00 | 0.00 | 0.00 | 89 | 1007.7 |
| 20260507071931 | 43 | 43 | 2.0 | 2.0 | 0.00 | 0.00 | 0.00 | 89 | 1007.8 |
| 20260507071428 | 43 | 38 | 1.0 | 2.0 | 0.00 | 0.00 | 0.00 | 89 | 1007.8 |
| 20260507070924 | 43 | 58 | 2.0 | 3.0 | 0.00 | 0.00 | 0.00 | 89 | 1007.8 |
| 20260507070422 | 43 | 45 | 1.0 | 2.0 | 0.00 | 0.00 | 0.00 | 89 | 1008.0 |
| 20260507065918 | 43 | 55 | 2.0 | 3.0 | 0.00 | 0.00 | 0.00 | 89 | 1007.7 |
| 20260507065416 | 43 | 68 | 1.0 | 3.0 | 0.00 | 0.00 | 0.00 | 90 | 1007.9 |
| 20260507064913 | 44 | 32 | 1.0 | 3.0 | 0.00 | 0.00 | 0.00 | 91 | 1008.0 |
| 20260507064556 | 44 | 180 | 0.0 | 2.0 | 0.00 | 0.26 | 0.00 | 91 | 1006.8 |
| 20260507064411 | 44 | 45 | 2.0 | 3.0 | 0.00 | 0.00 | 0.00 | 91 | 1007.9 |
| 20260507063908 | 44 | 20 | 2.0 | 3.0 | 0.00 | 0.00 | 0.00 | 92 | 1007.7 |
| 20260507063405 | 44 | 59 | 1.0 | 2.0 | 0.00 | 0.00 | 0.00 | 93 | 1007.6 |
| 20260507063056 | 45 | 128 | 0.0 | 1.0 | 0.00 | 0.26 | 0.00 | 93 | 1006.7 |
| 20260507062902 | 44 | 49 | 2.0 | 2.0 | 0.00 | 0.00 | 0.00 | 93 | 1007.9 |
| 20260507062359 | 44 | 53 | 2.0 | 2.0 | 0.00 | 0.00 | 0.00 | 94 | 1007.8 |
| 20260507061856 | 44 | 56 | 1.0 | 3.0 | 0.00 | 0.00 | 0.00 | 94 | 1007.5 |
| 20260507061556 | 45 | 128 | 0.0 | 1.0 | 0.00 | 0.26 | 0.00 | 94 | 1006.5 |
| 20260507061354 | 44 | 42 | 2.0 | 2.0 | 0.00 | 0.00 | 0.00 | 94 | 1007.7 |
| 20260507060853 | 44 | 52 | 0.0 | 2.0 | 0.00 | 0.00 | 0.00 | 95 | 1007.6 |
| 20260507060349 | 44 | 53 | 1.0 | 2.0 | 0.00 | 0.00 | 0.00 | 95 | 1007.5 |
| 20260507060056 | 45 | 128 | 0.0 | 1.0 | 0.00 | 0.26 | 0.00 | 95 | 1006.1 |
| 20260507055846 | 44 | 59 | 1.0 | 2.0 | 0.00 | 0.00 | 0.00 | 96 | 1007.2 |
| 20260507055341 | 44 | 54 | 0.0 | 2.0 | 0.00 | 0.00 | 0.00 | 96 | 1007.4 |
| 20260507054838 | 44 | 47 | 1.0 | 2.0 | 0.00 | 0.00 | 0.00 | 96 | 1007.1 |
| 20260507054556 | 45 | 128 | 0.0 | 1.0 | 0.00 | 0.26 | 0.00 | 95 | 1006.2 |
| 20260507054334 | 44 | 38 | 0.0 | 2.0 | 0.00 | 0.00 | 0.00 | 96 | 1007.1 |
| 20260507053831 | 44 | 46 | 2.0 | 3.0 | 0.00 | 0.00 | 0.00 | 96 | 1007.1 |
| 20260507053329 | 44 | 56 | 2.0 | 2.0 | 0.00 | 0.00 | 0.00 | 96 | 1007.2 |
| 20260507053057 | 44 | 128 | 0.0 | 1.0 | 0.00 | 0.26 | 0.00 | 95 | 1006.0 |
| 20260507052828 | 44 | 57 | 2.0 | 2.0 | 0.00 | 0.00 | 0.00 | 96 | 1007.3 |
| 20260507052324 | 44 | 48 | 0.0 | 2.0 | 0.00 | 0.00 | 0.00 | 96 | 1007.2 |
| 20260507051822 | 44 | 57 | 2.0 | 3.0 | 0.00 | 0.00 | 0.00 | 96 | 1007.3 |
| 20260507051555 | 44 | 128 | 0.0 | 0.0 | 0.00 | 0.26 | 0.00 | 95 | 1006.2 |
| 20260507051319 | 44 | 41 | 2.0 | 3.0 | 0.00 | 0.00 | 0.00 | 96 | 1007.1 |
| 20260507050816 | 44 | 55 | 2.0 | 3.0 | 0.00 | 0.00 | 0.00 | 96 | 1007.3 |
| 20260507050312 | 44 | 61 | 2.0 | 3.0 | 0.00 | 0.00 | 0.00 | 96 | 1006.9 |
| 20260507045809 | 44 | 58 | 2.0 | 2.0 | 0.00 | 0.00 | 0.00 | 96 | 1007.3 |
| 20260507045307 | 44 | 34 | 2.0 | 3.0 | 0.00 | 0.00 | 0.00 | 96 | 1007.1 |
| 20260507044803 | 43 | 68 | 2.0 | 3.0 | 0.00 | 0.00 | 0.00 | 96 | 1007.2 |
| 20260507044556 | 44 | 128 | 0.0 | 0.0 | 0.00 | 0.26 | 0.00 | 94 | 1006.2 |
| 20260507044259 | 43 | 57 | 2.0 | 3.0 | 0.00 | 0.00 | 0.00 | 96 | 1007.4 |
| 20260507043755 | 43 | 36 | 1.0 | 2.0 | 0.00 | 0.00 | 0.00 | 96 | 1007.2 |
| 20260507043252 | 43 | 51 | 3.0 | 3.0 | 0.00 | 0.00 | 0.00 | 96 | 1007.3 |
| 20260507043057 | 44 | 128 | 0.0 | 0.0 | 0.00 | 0.26 | 0.00 | 94 | 1006.3 |
| 20260507042748 | 43 | 50 | 2.0 | 3.0 | 0.00 | 0.00 | 0.00 | 96 | 1007.2 |
| 20260507042243 | 43 | 64 | 2.0 | 3.0 | 0.00 | 0.00 | 0.00 | 96 | 1007.4 |
| 20260507041742 | 43 | 49 | 2.0 | 3.0 | 0.00 | 0.00 | 0.00 | 96 | 1007.5 |
| 20260507041238 | 43 | 48 | 2.0 | 3.0 | 0.00 | 0.00 | 0.00 | 96 | 1007.5 |
| 20260507040735 | 43 | 46 | 3.0 | 3.0 | 0.00 | 0.00 | 0.00 | 95 | 1007.6 |
| 20260507040231 | 43 | 64 | 2.0 | 2.0 | 0.00 | 0.00 | 0.00 | 95 | 1007.7 |
| 20260507040056 | 44 | 128 | 0.0 | 0.0 | 0.00 | 0.26 | 0.00 | 92 | 1006.3 |
| 20260507035727 | 43 | 60 | 2.0 | 2.0 | 0.00 | 0.27 | 0.27 | 95 | 1007.4 |
| 20260507035222 | 43 | 50 | 2.0 | 3.0 | 0.00 | 0.27 | 0.27 | 95 | 1007.5 |
| 20260507034720 | 43 | 42 | 2.0 | 2.0 | 0.00 | 0.27 | 0.27 | 95 | 1007.3 |
| 20260507034556 | 44 | 128 | 0.0 | 1.0 | 0.00 | 0.26 | 0.26 | 92 | 1006.3 |
| 20260507034217 | 43 | 58 | 2.0 | 3.0 | 0.00 | 0.27 | 0.27 | 95 | 1007.2 |
| 20260507033716 | 43 | 46 | 2.0 | 3.0 | 0.00 | 0.27 | 0.27 | 94 | 1007.3 |
| 20260507033213 | 43 | 55 | 2.0 | 3.0 | 0.00 | 0.27 | 0.27 | 94 | 1007.4 |
| 20260507033056 | 44 | 128 | 0.0 | 0.0 | 0.00 | 0.26 | 0.26 | 91 | 1006.3 |
| 20260507032710 | 43 | 51 | 2.0 | 2.0 | 0.00 | 0.27 | 0.27 | 94 | 1007.4 |
| 20260507032206 | 43 | 66 | 1.0 | 2.0 | 0.00 | 0.27 | 0.27 | 94 | 1007.2 |
| 20260507031703 | 43 | 61 | 2.0 | 3.0 | 0.00 | 0.27 | 0.27 | 93 | 1006.9 |
| 20260507031159 | 44 | 53 | 2.0 | 3.0 | 0.00 | 0.27 | 0.27 | 93 | 1006.8 |
| 20260507030656 | 44 | 45 | 2.0 | 3.0 | 0.00 | 0.27 | 0.27 | 93 | 1007.1 |
| 20260507030154 | 44 | 58 | 2.0 | 3.0 | 0.00 | 0.27 | 0.27 | 92 | 1007.4 |
| 20260507030055 | 46 | 128 | 0.0 | 0.0 | 0.00 | 0.26 | 0.26 | 90 | 1006.4 |
| 20260507025651 | 44 | 60 | 2.0 | 3.0 | 0.00 | 0.27 | 0.27 | 92 | 1007.3 |
| 20260507025148 | 45 | 60 | 0.0 | 3.0 | 0.00 | 0.27 | 0.27 | 92 | 1007.2 |
| 20260507024646 | 45 | 51 | 2.0 | 3.0 | 0.00 | 0.27 | 0.27 | 91 | 1007.5 |
| 20260507024555 | 46 | 128 | 0.0 | 0.0 | 0.00 | 0.26 | 0.26 | 90 | 1006.4 |
| 20260507024143 | 45 | 45 | 2.0 | 3.0 | 0.00 | 0.27 | 0.27 | 91 | 1007.4 |
| 20260507023638 | 46 | 55 | 2.0 | 3.0 | 0.00 | 0.27 | 0.27 | 91 | 1007.6 |
| 20260507023136 | 46 | 53 | 2.0 | 2.0 | 0.00 | 0.27 | 0.27 | 91 | 1007.4 |
| 20260507023056 | 46 | 128 | 0.0 | 1.0 | 0.00 | 0.26 | 0.26 | 90 | 1006.3 |
| 20260507022633 | 46 | 60 | 2.0 | 3.0 | 0.00 | 0.27 | 0.27 | 91 | 1007.4 |
| 20260507022128 | 46 | 42 | 2.0 | 2.0 | 0.00 | 0.27 | 0.27 | 91 | 1007.8 |
| 20260507021625 | 46 | 65 | 2.0 | 3.0 | 0.00 | 0.27 | 0.27 | 91 | 1007.7 |
| 20260507021557 | 47 | 128 | 0.0 | 1.0 | 0.00 | 0.26 | 0.26 | 90 | 1006.6 |
| 20260507021120 | 46 | 60 | 2.0 | 3.0 | 0.00 | 0.27 | 0.27 | 91 | 1007.9 |
| 20260507020619 | 46 | 62 | 2.0 | 2.0 | 0.00 | 0.27 | 0.27 | 91 | 1007.6 |
| 20260507020114 | 46 | 66 | 2.0 | 3.0 | 0.00 | 0.27 | 0.27 | 90 | 1007.4 |
| 20260507020056 | 47 | 128 | 0.0 | 0.0 | 0.00 | 0.26 | 0.26 | 89 | 1006.4 |
| 20260507015613 | 46 | 65 | 2.0 | 2.0 | 0.00 | 0.27 | 0.27 | 90 | 1007.9 |
| 20260507015110 | 46 | 52 | 1.0 | 2.0 | 0.00 | 0.27 | 0.27 | 90 | 1007.8 |
| 20260507014607 | 46 | 43 | 2.0 | 2.0 | 0.00 | 0.27 | 0.27 | 89 | 1008.0 |
| 20260507014556 | 47 | 128 | 0.0 | 0.0 | 0.00 | 0.26 | 0.26 | 88 | 1006.8 |
| 20260507014102 | 46 | 59 | 2.0 | 3.0 | 0.00 | 0.27 | 0.27 | 89 | 1008.1 |
| 20260507013559 | 46 | 63 | 2.0 | 3.0 | 0.00 | 0.27 | 0.27 | 89 | 1008.2 |
| 20260507013057 | 46 | 57 | 1.0 | 2.0 | 0.00 | 0.27 | 0.27 | 88 | 1008.1 |
| 20260507012554 | 46 | 54 | 3.0 | 3.0 | 0.00 | 0.27 | 0.27 | 88 | 1007.9 |
| 20260507012049 | 46 | 74 | 2.0 | 3.0 | 0.00 | 0.27 | 0.27 | 88 | 1007.8 |
| 20260507011555 | 47 | 128 | 0.0 | 1.0 | 0.00 | 0.26 | 0.26 | 88 | 1006.8 |
| 20260507011548 | 47 | 64 | 1.0 | 2.0 | 0.00 | 0.27 | 0.27 | 89 | 1007.8 |
| 20260507011044 | 47 | 55 | 2.0 | 3.0 | 0.00 | 0.27 | 0.27 | 89 | 1007.7 |
| 20260507010543 | 46 | 67 | 0.0 | 3.0 | 0.00 | 0.27 | 0.27 | 89 | 1007.8 |
| 20260507010055 | 47 | 128 | 1.0 | 2.0 | 0.00 | 0.26 | 0.26 | 89 | 1006.8 |
| 20260507010041 | 46 | 85 | 2.0 | 3.0 | 0.00 | 0.27 | 0.27 | 89 | 1007.6 |
| 20260507005538 | 47 | 71 | 2.0 | 3.0 | 0.00 | 0.27 | 0.27 | 90 | 1008.0 |
| 20260507005034 | 47 | 48 | 2.0 | 2.0 | 0.00 | 0.27 | 0.27 | 90 | 1007.7 |
| 20260507004556 | 47 | 108 | 0.0 | 1.0 | 0.00 | 0.26 | 0.26 | 89 | 1006.5 |
| 20260507004532 | 47 | 66 | 2.0 | 3.0 | 0.00 | 0.27 | 0.27 | 90 | 1007.6 |
| 20260507004029 | 47 | 54 | 2.0 | 2.0 | 0.00 | 0.27 | 0.27 | 89 | 1007.6 |
| 20260507003524 | 47 | 57 | 2.0 | 3.0 | 0.00 | 0.27 | 0.27 | 89 | 1007.5 |
| 20260507003056 | 47 | 108 | 0.0 | 2.0 | 0.00 | 0.26 | 0.26 | 88 | 1006.2 |
| 20260507003020 | 47 | 83 | 2.0 | 3.0 | 0.00 | 0.27 | 0.27 | 89 | 1007.0 |
| 20260507002516 | 47 | 47 | 2.0 | 4.0 | 0.00 | 0.27 | 0.27 | 89 | 1007.1 |
| 20260507002012 | 47 | 73 | 2.0 | 2.0 | 0.00 | 0.27 | 0.27 | 89 | 1006.9 |
| 20260507001556 | 47 | 337 | 0.0 | 1.0 | 0.00 | 0.26 | 0.26 | 88 | 1005.8 |
| 20260507001509 | 47 | 72 | 2.0 | 3.0 | 0.00 | 0.27 | 0.27 | 88 | 1006.9 |
| 20260507001007 | 47 | 38 | 2.0 | 3.0 | 0.00 | 0.27 | 0.27 | 89 | 1006.7 |
| 20260507000502 | 47 | 42 | 2.0 | 4.0 | 0.00 | 0.27 | 0.27 | 89 | 1006.8 |
| 20260506235958 | 47 | 62 | 2.0 | 3.0 | 0.00 | 0.27 | 0.27 | 89 | 1006.9 |
| 20260506235456 | 47 | 77 | 2.0 | 3.0 | 0.00 | 0.27 | 0.27 | 89 | 1006.9 |
| 20260506234951 | 47 | 52 | 3.0 | 3.0 | 0.00 | 0.27 | 0.27 | 89 | 1006.7 |
| 20260506234555 | 47 | 89 | 0.0 | 2.0 | 0.00 | 0.26 | 0.26 | 90 | 1005.7 |
| 20260506234449 | 47 | 93 | 2.0 | 3.0 | 0.00 | 0.27 | 0.27 | 90 | 1006.8 |
| 20260506233946 | 47 | 68 | 3.0 | 3.0 | 0.00 | 0.27 | 0.27 | 90 | 1006.6 |
| 20260506233442 | 47 | 41 | 2.0 | 4.0 | 0.00 | 0.27 | 0.27 | 89 | 1006.4 |
| 20260506233056 | 47 | 80 | 1.0 | 3.0 | 0.00 | 0.26 | 0.26 | 89 | 1005.4 |
| 20260506232939 | 47 | 56 | 2.0 | 3.0 | 0.00 | 0.27 | 0.27 | 89 | 1006.4 |
| 20260506232436 | 47 | 64 | 3.0 | 4.0 | 0.00 | 0.27 | 0.27 | 89 | 1006.4 |
| 20260506231931 | 47 | 86 | 3.0 | 3.0 | 0.00 | 0.27 | 0.27 | 90 | 1006.2 |
| 20260506231556 | 47 | 83 | 0.0 | 3.0 | 0.00 | 0.26 | 0.26 | 90 | 1005.4 |
| 20260506231429 | 47 | 39 | 2.0 | 3.0 | 0.00 | 0.27 | 0.27 | 90 | 1006.4 |
| 20260506230926 | 47 | 64 | 3.0 | 3.0 | 0.00 | 0.27 | 0.27 | 91 | 1006.4 |
| 20260506230422 | 47 | 48 | 3.0 | 3.0 | 0.00 | 0.27 | 0.27 | 91 | 1006.3 |
| 20260506225919 | 47 | 84 | 2.0 | 3.0 | 0.00 | 0.27 | 0.27 | 91 | 1006.1 |
| 20260506225416 | 47 | 82 | 2.0 | 4.0 | 0.00 | 0.27 | 0.27 | 91 | 1006.2 |
| 20260506224913 | 47 | 55 | 2.0 | 3.0 | 0.00 | 0.27 | 0.27 | 91 | 1006.2 |
| 20260506224411 | 47 | 56 | 2.0 | 3.0 | 0.00 | 0.27 | 0.27 | 91 | 1006.1 |
| 20260506223907 | 47 | 75 | 2.0 | 3.0 | 0.00 | 0.27 | 0.27 | 91 | 1006.1 |
| 20260506223402 | 47 | 64 | 2.0 | 3.0 | 0.00 | 0.27 | 0.27 | 91 | 1006.0 |
| 20260506223056 | 48 | 137 | 1.0 | 3.0 | 0.00 | 0.26 | 0.26 | 91 | 1004.9 |
| 20260506222859 | 47 | 28 | 1.0 | 4.0 | 0.00 | 0.27 | 0.27 | 91 | 1006.0 |
| 20260506222355 | 47 | 54 | 2.0 | 2.0 | 0.02 | 0.27 | 0.27 | 92 | 1005.8 |
| 20260506221853 | 47 | 63 | 2.0 | 5.0 | 0.02 | 0.27 | 0.27 | 92 | 1005.7 |
| 20260506221555 | 48 | 123 | 1.0 | 3.0 | 0.00 | 0.26 | 0.26 | 92 | 1004.6 |
| 20260506221350 | 48 | 59 | 2.0 | 4.0 | 0.00 | 0.26 | 0.26 | 92 | 1005.7 |
| 20260506220848 | 48 | 46 | 4.0 | 4.0 | 0.00 | 0.26 | 0.26 | 92 | 1005.5 |
| 20260506220343 | 48 | 88 | 1.0 | 3.0 | 0.00 | 0.26 | 0.26 | 93 | 1005.5 |
| 20260506220055 | 48 | 114 | 0.0 | 3.0 | 0.01 | 0.26 | 0.26 | 93 | 1004.3 |
| 20260506215840 | 48 | 57 | 1.0 | 2.0 | 0.00 | 0.26 | 0.26 | 93 | 1005.3 |
| 20260506215336 | 48 | 58 | 2.0 | 3.0 | 0.00 | 0.26 | 0.26 | 93 | 1005.2 |
| 20260506214832 | 48 | 67 | 3.0 | 4.0 | 0.00 | 0.26 | 0.26 | 93 | 1005.1 |
| 20260506214329 | 48 | 42 | 2.0 | 3.0 | 0.00 | 0.26 | 0.26 | 93 | 1005.0 |
| 20260506213827 | 48 | 323 | 0.0 | 2.0 | 0.00 | 0.26 | 0.26 | 93 | 1005.2 |
| 20260506213324 | 48 | 1 | 0.0 | 3.0 | 0.00 | 0.26 | 0.26 | 93 | 1004.8 |
| 20260506213056 | 49 | 247 | 2.0 | 3.0 | 0.02 | 0.26 | 0.26 | 93 | 1003.9 |
| 20260506212822 | 48 | 44 | 0.0 | 3.0 | 0.00 | 0.26 | 0.26 | 93 | 1005.0 |
| 20260506212317 | 49 | 102 | 1.0 | 3.0 | 0.02 | 0.26 | 0.26 | 94 | 1004.9 |
| 20260506211812 | 49 | 58 | 3.0 | 5.0 | 0.02 | 0.26 | 0.26 | 94 | 1004.7 |
| 20260506211556 | 49 | 252 | 0.0 | 3.0 | 0.04 | 0.26 | 0.26 | 93 | 1003.5 |
| 20260506211309 | 49 | 75 | 2.0 | 3.0 | 0.00 | 0.26 | 0.26 | 93 | 1004.5 |
| 20260506210806 | 49 | 269 | 0.0 | 3.0 | 0.02 | 0.26 | 0.26 | 94 | 1004.2 |
| 20260506210303 | 49 | 69 | 0.0 | 2.0 | 0.02 | 0.26 | 0.26 | 93 | 1004.2 |
| 20260506205800 | 49 | 254 | 3.0 | 4.0 | 0.02 | 0.26 | 0.26 | 93 | 1004.3 |
| 20260506205256 | 49 | 2 | 0.0 | 3.0 | 0.02 | 0.26 | 0.26 | 93 | 1004.1 |
| 20260506204752 | 49 | 74 | 1.0 | 2.0 | 0.02 | 0.25 | 0.25 | 93 | 1003.9 |
| 20260506204556 | 50 | 262 | 1.0 | 3.0 | 0.06 | 0.25 | 0.25 | 92 | 1002.9 |
| 20260506204250 | 50 | 84 | 0.0 | 3.0 | 0.05 | 0.25 | 0.25 | 93 | 1004.0 |
| 20260506203747 | 50 | 19 | 0.0 | 3.0 | 0.02 | 0.24 | 0.24 | 92 | 1003.8 |
| 20260506203244 | 50 | 98 | 1.0 | 4.0 | 0.07 | 0.24 | 0.24 | 92 | 1003.3 |
| 20260506203055 | 51 | 220 | 1.0 | 3.0 | 0.05 | 0.24 | 0.24 | 91 | 1002.5 |
| 20260506202742 | 51 | 265 | 0.0 | 2.0 | 0.07 | 0.24 | 0.24 | 92 | 1003.5 |
| 20260506202238 | 51 | 310 | 1.0 | 2.0 | 0.07 | 0.23 | 0.23 | 92 | 1003.1 |
| 20260506201735 | 51 | 93 | 0.0 | 2.0 | 0.02 | 0.22 | 0.22 | 91 | 1003.4 |
| 20260506201556 | 52 | 223 | 1.0 | 3.0 | 0.03 | 0.22 | 0.22 | 89 | 1002.2 |
| 20260506201232 | 51 | 33 | 2.0 | 3.0 | 0.02 | 0.22 | 0.22 | 90 | 1003.2 |
| 20260506200729 | 52 | 88 | 3.0 | 3.0 | 0.02 | 0.22 | 0.22 | 90 | 1003.3 |
| 20260506200226 | 52 | 291 | 0.0 | 3.0 | 0.07 | 0.22 | 0.22 | 90 | 1003.2 |
| 20260506200055 | 54 | 192 | 1.0 | 3.0 | 0.02 | 0.21 | 0.21 | 86 | 1001.8 |
| 20260506195722 | 53 | 29 | 1.0 | 4.0 | 0.09 | 0.21 | 0.21 | 89 | 1003.0 |
| 20260506195218 | 54 | 132 | 0.0 | 3.0 | 0.05 | 0.20 | 0.20 | 86 | 1003.0 |
| 20260506194716 | 57 | 244 | 2.0 | 6.0 | 0.00 | 0.20 | 0.20 | 82 | 1002.8 |
| 20260506194212 | 59 | 256 | 2.0 | 3.0 | 0.00 | 0.20 | 0.20 | 82 | 1002.3 |
| 20260506193710 | 60 | 230 | 3.0 | 7.0 | 0.00 | 0.20 | 0.20 | 83 | 1002.1 |
| 20260506193207 | 60 | 221 | 5.0 | 8.0 | 0.00 | 0.20 | 0.20 | 83 | 1002.0 |
| 20260506193056 | 60 | 234 | 1.0 | 3.0 | 0.00 | 0.19 | 0.19 | 85 | 1000.6 |
| 20260506192703 | 60 | 233 | 2.0 | 4.0 | 0.00 | 0.20 | 0.20 | 84 | 1002.0 |
| 20260506192200 | 60 | 204 | 0.0 | 2.0 | 0.00 | 0.20 | 0.20 | 84 | 1002.1 |
| 20260506191657 | 60 | 184 | 0.0 | 2.0 | 0.00 | 0.20 | 0.20 | 84 | 1002.0 |
| 20260506191556 | 60 | 224 | 1.0 | 2.0 | 0.00 | 0.19 | 0.19 | 85 | 1000.6 |
| 20260506191153 | 60 | 72 | 1.0 | 2.0 | 0.00 | 0.20 | 0.20 | 85 | 1002.1 |
| 20260506190650 | 60 | 63 | 2.0 | 2.0 | 0.00 | 0.20 | 0.20 | 85 | 1002.2 |
| 20260506190147 | 60 | 230 | 2.0 | 2.0 | 0.00 | 0.20 | 0.20 | 84 | 1002.1 |
| 20260506190057 | 60 | 237 | 1.0 | 3.0 | 0.00 | 0.19 | 0.19 | 86 | 1000.7 |
| 20260506185644 | 60 | 256 | 0.0 | 3.0 | 0.00 | 0.20 | 0.20 | 84 | 1002.1 |
| 20260506185140 | 60 | 41 | 1.0 | 4.0 | 0.00 | 0.20 | 0.20 | 84 | 1002.0 |
| 20260506184638 | 60 | 191 | 1.0 | 4.0 | 0.00 | 0.20 | 0.20 | 84 | 1002.1 |
| 20260506184556 | 60 | 224 | 2.0 | 3.0 | 0.00 | 0.19 | 0.19 | 85 | 1000.9 |
| 20260506184135 | 60 | 131 | 0.0 | 5.0 | 0.00 | 0.20 | 0.20 | 83 | 1002.2 |
| 20260506183632 | 60 | 126 | 0.0 | 1.0 | 0.00 | 0.20 | 0.20 | 85 | 1002.3 |
| 20260506183127 | 59 | 78 | 2.0 | 3.0 | 0.00 | 0.20 | 0.20 | 85 | 1002.1 |
| 20260506183057 | 59 | 172 | 1.0 | 3.0 | 0.00 | 0.19 | 0.19 | 87 | 1000.9 |
| 20260506182625 | 59 | 43 | 0.0 | 3.0 | 0.00 | 0.20 | 0.20 | 85 | 1002.4 |
| 20260506182122 | 59 | 214 | 2.0 | 5.0 | 0.00 | 0.20 | 0.20 | 85 | 1002.4 |
| 20260506181620 | 59 | 134 | 0.0 | 2.0 | 0.00 | 0.20 | 0.20 | 86 | 1002.3 |
| 20260506181117 | 59 | 213 | 3.0 | 9.0 | 0.00 | 0.20 | 0.20 | 85 | 1002.5 |
| 20260506180614 | 59 | 82 | 0.0 | 2.0 | 0.00 | 0.20 | 0.20 | 86 | 1002.3 |
| 20260506180110 | 59 | 229 | 4.0 | 4.0 | 0.00 | 0.20 | 0.20 | 86 | 1002.8 |
| 20260506175606 | 59 | 243 | 1.0 | 2.0 | 0.00 | 0.20 | 0.20 | 87 | 1002.4 |
| 20260506175102 | 59 | 218 | 2.0 | 5.0 | 0.00 | 0.20 | 0.20 | 86 | 1002.4 |
| 20260506174602 | 59 | 107 | 1.0 | 2.0 | 0.00 | 0.20 | 0.20 | 88 | 1002.4 |
| 20260506174555 | 59 | 242 | 0.0 | 3.0 | 0.00 | 0.19 | 0.19 | 88 | 1001.1 |
| 20260506174057 | 59 | 206 | 2.0 | 4.0 | 0.00 | 0.20 | 0.20 | 87 | 1002.5 |
| 20260506173555 | 59 | 101 | 2.0 | 4.0 | 0.00 | 0.20 | 0.20 | 87 | 1002.2 |
| 20260506173057 | 59 | 44 | 0.0 | 2.0 | 0.00 | 0.19 | 0.19 | 89 | 1001.0 |
| 20260506173052 | 59 | 72 | 2.0 | 2.0 | 0.00 | 0.20 | 0.20 | 88 | 1002.6 |
| 20260506172549 | 59 | 71 | 2.0 | 2.0 | 0.00 | 0.20 | 0.20 | 89 | 1002.3 |
| 20260506172045 | 59 | 200 | 2.0 | 2.0 | 0.00 | 0.20 | 0.20 | 90 | 1002.4 |
| 20260506171556 | 58 | 115 | 1.0 | 3.0 | 0.00 | 0.19 | 0.19 | 91 | 1001.1 |
| 20260506171543 | 59 | 85 | 1.0 | 4.0 | 0.00 | 0.20 | 0.20 | 90 | 1002.5 |
| 20260506171041 | 58 | 222 | 1.0 | 3.0 | 0.00 | 0.20 | 0.20 | 89 | 1002.4 |
| 20260506170538 | 58 | 279 | 0.0 | 3.0 | 0.00 | 0.20 | 0.20 | 90 | 1002.4 |
| 20260506170055 | 58 | 242 | 2.0 | 6.0 | 0.00 | 0.19 | 0.19 | 91 | 1001.1 |
| 20260506170035 | 58 | 56 | 0.0 | 3.0 | 0.02 | 0.20 | 0.20 | 90 | 1002.3 |
| 20260506165533 | 58 | 214 | 3.0 | 8.0 | 0.00 | 0.19 | 0.19 | 90 | 1002.5 |
| 20260506165029 | 58 | 217 | 4.0 | 8.0 | 0.00 | 0.19 | 0.19 | 90 | 1002.7 |
| 20260506164556 | 58 | 228 | 2.0 | 10.0 | 0.00 | 0.19 | 0.19 | 89 | 1001.3 |
| 20260506164526 | 58 | 228 | 2.0 | 3.0 | 0.00 | 0.19 | 0.19 | 89 | 1002.5 |
| 20260506164023 | 58 | 240 | 2.0 | 3.0 | 0.00 | 0.19 | 0.19 | 89 | 1002.9 |
| 20260506163520 | 58 | 287 | 2.0 | 3.0 | 0.00 | 0.19 | 0.19 | 88 | 1002.8 |
| 20260506163015 | 58 | 109 | 0.0 | 2.0 | 0.00 | 0.19 | 0.19 | 87 | 1002.8 |
| 20260506162512 | 58 | 129 | 0.0 | 7.0 | 0.00 | 0.19 | 0.19 | 86 | 1002.9 |
| 20260506162009 | 58 | 253 | 2.0 | 4.0 | 0.00 | 0.19 | 0.19 | 87 | 1002.8 |
| 20260506161507 | 58 | 44 | 0.0 | 2.0 | 0.00 | 0.19 | 0.19 | 90 | 1002.6 |
| 20260506161004 | 58 | 66 | 3.0 | 6.0 | 0.00 | 0.19 | 0.19 | 89 | 1002.9 |
| 20260506160501 | 58 | 80 | 1.0 | 3.0 | 0.00 | 0.19 | 0.19 | 88 | 1003.0 |
| 20260506160057 | 58 | 206 | 2.0 | 3.0 | 0.03 | 0.19 | 0.19 | 88 | 1001.6 |
| 20260506155958 | 58 | 84 | 1.0 | 4.0 | 0.00 | 0.19 | 0.19 | 87 | 1002.8 |
| 20260506155457 | 58 | 66 | 2.0 | 4.0 | 0.02 | 0.19 | 0.19 | 88 | 1002.6 |
| 20260506154556 | 58 | 137 | 1.0 | 5.0 | 0.03 | 0.19 | 0.19 | 88 | 1001.4 |
| 20260506153628 | 58 | 222 | 2.0 | 4.0 | 0.02 | 0.18 | 0.18 | 88 | 1002.7 |
| 20260506153125 | 58 | 261 | 3.0 | 6.0 | 0.05 | 0.18 | 0.18 | 88 | 1002.9 |
| 20260506153056 | 58 | 220 | 2.0 | 7.0 | 0.03 | 0.18 | 0.18 | 89 | 1001.6 |
| 20260506152622 | 58 | 252 | 2.0 | 5.0 | 0.07 | 0.18 | 0.18 | 88 | 1002.8 |
| 20260506152120 | 57 | 248 | 2.0 | 8.0 | 0.05 | 0.17 | 0.17 | 89 | 1002.9 |
| 20260506151618 | 58 | 63 | 3.0 | 4.0 | 0.05 | 0.17 | 0.17 | 88 | 1002.9 |
| 20260506151115 | 58 | 60 | 0.0 | 2.0 | 0.02 | 0.17 | 0.17 | 89 | 1002.6 |
| 20260506150612 | 58 | 237 | 1.0 | 2.0 | 0.02 | 0.16 | 0.16 | 89 | 1002.6 |
| 20260506150109 | 58 | 240 | 5.0 | 9.0 | 0.05 | 0.16 | 0.16 | 88 | 1002.8 |
| 20260506150055 | 57 | 230 | 2.0 | 7.0 | 0.01 | 0.16 | 0.16 | 89 | 1001.4 |
| 20260506145605 | 58 | 249 | 4.0 | 8.0 | 0.02 | 0.16 | 0.16 | 88 | 1002.9 |